Temp
7 6 6 6 5 5 5 3 2 1 1 6 5 6 5 5 5 4 5 5 5 4 4 4 4 4 5 5 6 7 7 7 7 7 7 8 8 8
7 6 6 6 5 5 4 4 3 1 -0 3 4 5 5 4 4 3 3 3 4 4 4 3 3 3 4 4 5 5 6 6 7 7 7 7 7 7
6 6 5 5 5 4 4 4 3 2 -0 1 1 2 2 3 4 4 3 3 3 3 3 2 2 3 3 3 4 4 4 5 6 6 6 7 7 7
5 5 5 4 4 4 4 3 3 2 0 -1 0 0 1 1 1 1 2 2 1 2 1 2 2 2 3 3 3 3 3 4 4 5 5 6 6 6
5 4 4 4 4 3 3 2 2 2 1 -1 -1 -1 -1 -1 -0 0 0 0 0 0 0 0 1 1 2 2 2 3 3 3 3 3 4 4 5 5
4 4 4 3 3 2 2 2 1 1 0 -0 -1 -1 -0 -1 0 1 1 1 0 0 0 0 1 1 1 1 1 2 2 2 2 2 3 3 3 4
4 3 3 2 2 1 1 1 1 0 -0 -1 -1 -0 0 0 -0 -1 -0 -0 -0 0 0 0 0 1 1 1 0 1 1 1 1 2 2 2 3 3
2 2 2 1 1 0 -0 -0 -0 -0 -0 -0 -0 -1 -0 -1 -1 -1 -0 -1 -1 -0 -0 -0 -1 -1 -1 -0 -0 0 1 1 2 2 2 2 2 2
1 1 0 -0 -0 -1 -1 -0 -0 -1 -0 0 -0 -1 -2 -1 -2 -2 -2 -2 -2 -1 -2 -2 -2 -2 -1 -1 -1 -0 0 1 1 1 1 1 2 2
0 -0 -0 -1 -1 -1 -0 -0 -0 -1 -1 -1 -1 -1 -1 -1 -1 -2 -1 -2 -2 -1 -2 -2 -2 -2 -2 -2 -1 -1 -0 -0 0 1 1 2 1 1
-0 -1 -1 -1 -1 -0 -0 -1 -2 -2 -2 -2 -1 -1 -1 -1 -1 -1 -2 -3 -2 -3 -3 -3 -3 -3 -2 -2 -2 -1 -1 -0 0 0 1 1 1 1
-1 -1 -1 -1 -1 -1 -1 -1 -1 -2 -2 -2 -2 -2 -2 -2 -2 -2 -3 -4 -3 -3 -3 -3 -3 -3 -2 -1 -1 -1 -2 -1 -2 -1 -0 0 0 1
-1 -1 -1 -1 -1 -1 -1 -2 -2 -2 -2 -3 -3 -4 -3 -3 -3 -3 -3 -4 -4 -4 -4 -4 -3 -3 -3 -3 -2 -2 -2 -2 -1 -1 -1 -1 -1 -0
-1 -1 -2 -2 -1 -2 -2 -2 -2 -3 -4 -4 -5 -4 -4 -4 -4 -4 -5 -5 -4 -4 -4 -4 -4 -4 -3 -3 -3 -2 -2 -2 -2 -2 -2 -1 -2 -1
-2 -2 -2 -2 -2 -3 -3 -3 -3 -4 -5 -5 -4 -4 -4 -4 -4 -4 -4 -4 -4 -3 -3 -3 -4 -4 -4 -3 -3 -3 -2 -2 -2 -2 -2 -2 -2 -2
-2 -2 -2 -3 -3 -4 -4 -4 -5 -5 -5 -5 -5 -5 -5 -5 -5 -4 -4 -4 -4 -4 -3 -3 -4 -4 -4 -4 -3 -3 -2 -3 -3 -2 -2 -3 -3 -3
-2 -2 -3 -4 -5 -5 -5 -5 -5 -5 -5 -5 -5 -5 -5 -5 -5 -4 -4 -4 -4 -4 -4 -4 -4 -4 -4 -3 -3 -3 -3 -3 -3 -3 -3 -3 -3 -3
-3 -4 -5 -5 -5 -5 -5 -5 -5 -5 -5 -5 -5 -5 -5 -5 -5 -5 -4 -5 -5 -4 -4 -5 -5 -4 -3 -2 -2 -3 -3 -3 -3 -3 -3 -3 -3 -3
-5 -6 -5 -5 -5 -5 -5 -5 -5 -6 -6 -6 -6 -6 -6 -6 -6 -6 -6 -6 -5 -4 -4 -5 -5 -4 -4 -7 -3 -3 -4 -4 -4 -3 -3 -4 -4 -3
-5 -5 -5 -6 -6 -6 -6 -6 -6 -6 -7 -7 -7 -7 -7 -7 -6 -6 -6 -6 -5 -5 -5 -5 -5 -5 -4 -4 -4 -3 -3 -4 -4 -4 -4 -4 -4 -4
-5 -5 -6 -6 -6 -6 -7 -7 -7 -8 -7 -7 -8 -7 -7 -7 -7 -7 -6 -5 -5 -5 -5 -6 -5 -5 -4 -4 -6 -4 -3 -4 -4 -4 -4 -5 -5 -5
-6 -6 -6 -6 -7 -7 -8 -8 -8 -8 -8 -8 -8 -8 -8 -7 -7 -7 -6 -6 -6 -6 -6 -6 -5 -4 -5 -5 -6 -5 -5 -4 -4 -5 -5 -5 -5 -9
-6 -6 -6 -7 -7 -8 -8 -8 -8 -8 -8 -8 -8 -8 -7 -7 -7 -7 -6 -6 -6 -6 -6 -6 -5 -5 -5 -5 -5 -5 -6 -6 -5 -5 -5 -5 -5 -5
Height
832 832 831 831 830 829 828 827 826 823 816 810 807 804 803 801 798 795 792 789 786 783 780 778 776 774 773 771 770 770 770 770 770 770 770 770 770 769
831 830 829 828 828 826 825 824 822 820 816 809 807 802 798 794 791 789 786 784 781 778 775 772 770 768 765 764 763 762 761 761 761 761 760 761 761 761
829 828 827 826 824 823 821 819 817 815 810 803 801 799 796 791 787 783 780 776 774 772 769 766 764 761 759 757 755 754 753 752 751 750 750 751 751 751
827 826 825 823 821 819 817 815 812 810 806 798 795 792 790 787 784 780 776 772 768 766 763 761 758 755 753 751 748 746 745 743 743 742 741 741 741 742
825 823 821 819 817 815 813 810 808 805 802 796 789 787 784 782 777 774 771 767 764 760 757 753 750 748 745 744 741 739 737 736 734 733 733 732 732 733
822 821 819 817 814 811 809 806 802 799 796 792 787 783 780 776 773 769 763 762 758 756 752 748 743 740 738 736 734 731 729 727 726 724 723 723 722 722
820 818 816 814 812 809 806 802 799 795 792 788 784 779 775 772 770 765 759 755 750 749 743 738 735 733 729 726 724 721 720 719 717 716 715 714 713 713
817 814 812 809 807 804 801 799 797 792 788 784 780 776 771 768 764 759 753 748 740 741 735 729 731 726 723 719 714 713 711 710 709 707 706 705 705 704
814 811 808 806 802 798 795 793 792 790 786 782 775 771 765 762 758 751 747 741 735 732 732 722 723 719 715 710 707 705 703 702 700 698 697 696 695 695
812 809 805 801 799 796 792 789 786 782 778 775 771 765 761 756 752 746 741 737 731 727 728 721 717 710 706 702 700 698 694 692 691 690 688 686 685 685
807 804 801 798 796 793 788 782 778 775 772 769 765 760 756 751 748 743 738 735 726 723 724 718 710 705 700 693 691 689 687 685 683 682 680 677 676 676
803 801 799 796 793 789 784 779 772 768 764 759 756 753 749 745 742 740 735 731 726 718 718 715 708 705 692 686 684 683 680 678 675 672 670 669 668 667
800 797 795 792 789 785 781 776 771 764 759 755 750 746 742 739 736 733 730 727 721 716 714 711 704 700 697 684 676 675 673 668 665 662 660 659 658 658
797 794 790 787 784 780 776 771 767 762 756 750 746 742 738 734 730 727 723 720 716 711 707 705 699 695 689 681 674 668 665 662 659 654 652 650 649 648
794 789 786 782 778 773 770 766 761 756 752 747 743 738 734 729 725 720 716 712 708 703 700 697 693 688 684 678 671 665 659 656 653 649 646 644 642 641
788 784 781 778 773 769 764 759 757 753 749 744 738 733 728 724 720 716 711 706 702 697 694 690 687 683 677 672 667 660 657 654 649 645 642 640 638 637
784 780 776 772 768 764 761 757 753 749 745 740 735 729 724 720 716 712 707 701 698 693 688 684 680 676 671 666 661 657 653 650 646 642 640 638 637 636
781 777 774 771 767 762 758 753 749 745 740 735 730 726 720 716 711 707 703 699 694 689 685 680 675 670 664 660 657 654 651 648 644 641 639 639 637 636
778 775 772 768 764 759 754 749 744 741 736 733 728 723 718 713 709 704 699 695 690 686 682 678 674 670 664 664 655 653 651 647 644 641 640 639 638 637
775 772 768 764 760 755 751 747 741 737 732 728 723 719 714 710 705 701 696 692 687 682 678 674 671 668 664 659 655 651 649 646 645 642 640 639 638 636
771 768 765 760 756 752 748 743 739 734 729 724 719 715 710 707 702 697 693 689 684 680 675 671 667 664 660 656 653 649 647 645 644 642 641 639 637 636
768 764 761 756 753 748 744 739 735 730 725 720 716 711 707 703 698 694 689 685 680 676 672 667 663 659 656 654 651 648 645 643 642 641 640 639 638 638
764 760 756 752 748 744 740 735 731 726 721 715 711 707 703 699 695 690 686 681 677 672 668 664 659 657 654 652 649 647 645 642 641 639 638 637 635 634
Wind_Speed
6 7 8 7 8 9 11 12 7 3 3 13 12 18 23 34 30 28 25 25 26 26 24 24 24 23 23 23 25 27 28 27 27 27 27 28 27 26
7 7 8 10 12 12 13 13 14 14 4 8 21 32 33 34 32 29 28 25 25 26 27 25 24 23 23 23 24 25 28 30 30 30 30 31 30 29
8 10 12 13 15 15 14 15 16 16 12 20 21 26 26 30 32 32 32 31 29 26 23 22 22 23 24 24 24 25 26 29 31 33 34 33 32 31
12 13 13 15 17 17 17 19 20 20 21 20 22 23 25 28 29 30 31 30 30 28 25 24 25 26 25 24 24 24 26 27 29 31 32 33 33 32
13 14 16 17 20 21 22 23 23 23 24 25 25 23 24 22 26 25 25 27 25 25 24 24 23 25 25 25 26 27 27 27 28 28 28 31 33 35
15 16 17 19 21 23 23 23 24 25 28 26 24 24 21 23 21 23 23 22 24 25 24 27 29 30 27 27 27 27 27 26 26 26 27 28 29 30
18 18 19 20 21 21 20 23 25 26 26 23 23 23 22 22 24 26 24 28 26 26 29 33 31 28 31 34 32 29 29 28 27 27 27 27 28 29
19 21 22 24 24 23 23 21 21 24 23 22 21 22 25 25 25 25 26 22 10 22 22 26 26 30 31 35 34 31 29 29 30 29 28 28 28 28
19 21 23 23 24 26 25 25 23 23 25 28 29 27 27 26 27 26 23 24 23 27 25 27 20 26 32 33 31 32 30 29 28 29 29 29 29 29
19 20 22 24 23 22 26 26 29 30 29 27 29 32 32 31 29 27 23 25 29 24 17 18 27 30 30 31 32 32 34 32 29 27 29 28 27 28
22 23 22 23 23 25 28 28 28 27 25 27 27 28 28 29 28 27 23 21 21 23 18 22 22 24 29 35 31 24 25 25 24 29 29 26 27 29
23 24 24 21 25 26 27 28 29 30 30 29 24 30 30 29 25 24 25 21 21 19 9 18 24 20 12 24 19 26 30 29 28 27 25 28 28 28
22 25 23 23 23 26 26 29 27 31 29 28 28 26 27 26 26 26 25 25 24 23 25 23 20 23 18 23 24 26 29 30 29 31 31 28 27 26
21 25 26 23 25 26 26 21 24 25 28 25 22 20 20 22 26 27 27 24 23 26 29 27 20 24 25 24 21 25 26 28 29 31 29 28 25 24
25 25 26 25 23 27 23 24 24 27 25 23 23 23 24 28 28 26 25 26 26 27 28 28 29 30 27 24 23 27 24 25 25 25 21 24 22 23
25 26 22 26 25 24 26 27 26 25 23 24 25 27 27 25 24 25 24 27 22 25 25 22 24 27 27 26 24 24 23 14 22 24 24 21 16 13
26 25 27 24 22 21 21 21 23 24 23 24 24 26 25 25 24 25 24 24 17 22 22 24 27 26 26 27 21 18 18 20 21 20 17 13 8 7
22 20 17 16 18 21 23 24 25 25 25 25 25 25 24 23 21 22 20 20 21 19 19 23 26 25 21 17 12 16 14 16 20 17 10 6 6 5
16 15 17 18 20 23 25 24 24 26 21 23 25 24 24 22 22 21 21 18 16 18 21 25 21 15 8 4 9 8 11 14 15 12 8 6 5 6
13 18 20 21 23 24 23 26 26 23 27 23 24 25 24 22 22 20 20 19 19 18 17 21 20 17 8 8 5 13 11 9 8 10 9 7 6 7
19 19 21 23 23 23 26 26 25 26 25 26 24 23 24 22 22 21 21 22 22 18 16 17 21 20 20 14 5 6 9 7 7 8 8 8 4 4
19 21 24 22 24 25 26 25 26 25 25 24 24 24 25 24 22 22 21 20 19 19 20 23 23 19 13 7 7 9 11 10 7 6 7 8 5 2
21 22 24 25 25 27 26 25 25 27 27 27 26 26 25 23 24 23 22 21 21 19 18 19 21 16 12 11 11 8 8 10 8 10 12 11 13 16
Wind_Direction
348 341 335 332 323 315 303 289 252 285 270 296 308 312 307 311 315 315 313 309 306 304 302 299 295 292 288 283 275 269 267 266 266 266 266 264 262 261
350 344 337 328 324 322 316 307 292 263 268 277 282 301 311 313 317 317 315 311 306 304 303 300 297 294 290 285 281 276 268 265 263 263 262 261 258 257
346 335 335 329 328 327 322 314 305 296 269 288 289 299 302 308 311 313 313 313 312 311 311 306 302 299 294 289 284 281 276 271 267 264 261 260 257 256
342 336 335 330 325 325 321 317 315 314 300 293 299 298 298 309 309 310 310 310 311 311 306 300 296 296 292 293 289 287 281 277 274 268 266 262 258 257
340 335 332 328 325 324 320 316 315 314 311 300 300 305 305 307 308 308 309 308 309 310 308 303 301 298 292 290 291 289 285 281 277 275 276 267 262 258
338 333 329 325 320 319 317 314 313 310 313 308 304 310 310 310 312 311 306 305 305 305 303 300 300 298 294 294 292 289 286 286 282 281 276 273 273 268
331 329 327 324 321 319 314 315 314 312 310 304 306 307 308 312 312 304 302 305 298 292 290 288 293 299 298 300 295 288 285 283 284 280 276 274 273 272
332 329 329 327 327 324 323 320 314 311 308 307 306 305 303 300 297 294 296 289 291 294 286 287 290 292 294 296 294 288 286 286 285 280 277 275 272 271
333 333 333 334 332 330 330 329 323 317 309 305 301 296 294 299 300 294 286 277 276 290 294 285 292 286 289 289 290 291 291 289 287 285 283 277 272 272
337 337 336 337 335 326 322 316 311 311 308 303 298 297 298 300 302 301 310 314 305 302 304 290 297 289 293 292 294 289 287 287 288 285 282 278 276 271
340 341 337 327 325 321 321 315 310 307 304 299 298 300 303 304 309 311 311 310 302 303 305 285 293 300 295 292 295 298 290 290 290 292 285 281 280 274
335 334 332 323 322 320 318 316 314 314 312 308 310 311 312 311 305 302 305 295 297 299 303 303 297 298 299 295 297 299 298 293 294 290 284 279 280 277
327 325 320 318 317 320 322 319 314 316 320 318 315 312 313 315 317 316 310 296 288 287 294 298 298 295 285 299 299 301 297 298 298 295 293 286 280 273
318 314 313 316 319 320 317 315 318 321 324 317 314 312 312 309 311 308 306 302 298 289 296 293 277 286 288 290 292 302 298 296 295 290 293 293 286 277
318 316 316 315 317 319 322 318 324 328 321 317 314 312 308 307 313 311 308 303 304 301 300 295 285 287 283 284 290 294 297 302 295 293 295 300 294 294
322 320 319 319 323 325 329 330 326 322 314 310 305 305 306 306 304 303 298 298 293 297 303 300 299 297 287 281 279 284 294 294 298 300 305 304 300 295
323 321 325 328 324 323 324 324 322 318 310 310 309 307 307 309 305 314 307 297 288 303 308 311 319 314 303 290 285 283 288 300 309 314 307 298 289 279
322 324 322 323 324 324 323 318 316 315 311 306 306 310 306 314 307 318 318 311 302 304 308 308 313 315 321 322 286 272 298 309 327 325 299 283 287 299
328 321 313 315 319 318 315 314 317 316 323 324 311 314 312 313 312 311 309 305 301 305 301 303 305 309 308 299 296 275 289 314 330 332 310 286 305 328
329 321 316 315 316 315 322 320 317 318 320 319 315 313 310 309 307 307 306 304 297 297 305 308 306 303 293 304 292 301 312 316 325 330 329 321 307 302
320 317 314 313 314 322 318 317 315 316 314 314 311 308 308 308 304 302 301 309 312 308 301 301 306 313 306 307 293 288 312 308 292 298 304 307 306 302
311 312 315 313 319 317 316 315 315 314 312 309 307 308 310 308 300 301 302 301 303 301 298 302 320 322 306 276 275 288 296 308 304 281 276 271 275 262
312 309 316 315 317 316 319 315 314 314 314 312 311 313 314 307 308 306 304 305 304 304 307 310 323 325 308 298 301 295 302 314 316 313 301 296 280 273